{"data":{"norad_id":69868,"intl_designator":"2026-155W","name":"CZ-8A R/B","alt_names":[],"object_type":"ROCKET_BODY","status":"UNKNOWN","operator":null,"country":"PRC","launch_date":"2026-07-05","launch_site_code":"WSC","launch_vehicle":null,"mission":null,"orbit_class":"UNKNOWN","rcs_meters":null,"size_class":null,"mass_kg":null,"dimensions":null,"purposes":[],"wikipedia_slug":null,"has_3d_model":false,"image_url":null,"decayed_at":null,"tle_current":{"epoch":"2026-08-03T21:49:59.331936Z","epoch_age_seconds":4134966,"freshness":"OLD","line1":"1 69868U 26155W   26215.90971449  .00000333  00000+0  78795-4 0  9993","line2":"2 69868  88.9643  58.4743 0104895  38.4678 322.3945 14.48283870  4244","mean_motion":14.4828387,"eccentricity":0.0104895,"inclination_deg":88.9643,"raan_deg":58.4743,"arg_perigee_deg":38.4678,"mean_anomaly_deg":322.3945,"bstar":7.8795e-5,"rev_number":424,"period_min":99.428021662632,"perigee_km":656.68509743907,"apogee_km":805.83311838698,"semimajor_km":7109.396107913,"source":"CELESTRAK","updated_at":"2026-08-04T09:00:52.474318Z"}}}